Weather History for KFBL - January, 2013

Change the Weather History Date:

Saturday, January 26, 2013

  Actual Average Record
Temperature  
Mean Temperature 12 °F -  
Max Temperature 26 °F 19 °F 69 °F (1999)
Min Temperature -2 °F 0 °F -25 °F (1988)
Degree Days  
Heating Degree Days 53    
Moisture  
Dew Point 4 °F    
Average Humidity 69    
Maximum Humidity 92    
Minimum Humidity 50    
Precipitation  
Precipitation 0.00 in - - ()
Sea Level Pressure  
Sea Level Pressure 30.23 in    
Wind  
Wind Speed 5 mph (SE)    
Max Wind Speed 16 mph    
Max Gust Speed 21 mph    
Visibility 10 miles    
Events      
Averages and records for this station are not official NWS values.
T = Trace of Precipitation, MM = Missing Value Source: NWS Daily Summary

Daily Weather History Graph

Daily Weather History Graph

Search for Another Location

Airport or City:

Trip Planner

Search our weather history database for the weather conditions in past years. The results will help you decide how hot, cold, wet, or windy it might be!

Date:

Astronomy

Jan. 26, 2013 Rise Set
Actual Time 7:37 AM CST 5:14 PM CST
Civil Twilight 7:06 AM CST 5:46 PM CST
Nautical Twilight 6:30 AM CST 6:21 PM CST
Astronomical Twilight 5:56 AM CST 6:55 PM CST
Moon 5:12 PM CST (1/26) 6:54 AM CST (1/26)
Length of Visible Light 10h 40m
Length of Day
9h 37m
Full, 100% of the Moon is Illuminated
Jan 26
Full
Jan 26
Full
Feb 3
Last Quarter
Feb 10
New
Feb 17
First Quarter

Hourly Weather History & Observations

Time (CST) Temp. Windchill Dew Point Humidity Pressure Visibility Wind Dir Wind Speed Gust Speed Precip Events Conditions
12:14 AM 1.4 °F - -2.2 °F 85% 30.27 in 10.0 mi Calm Calm - N/A   Clear
12:34 AM 1.4 °F -6.2 °F -2.2 °F 85% 30.27 in 10.0 mi NW 3.5 mph - N/A   Clear
12:54 AM 1.4 °F -6.2 °F -2.2 °F 85% 30.28 in 10.0 mi WNW 3.5 mph - N/A   Clear
1:14 AM -0.4 °F - -2.2 °F 92% 30.28 in 10.0 mi Calm Calm - N/A   Clear
1:34 AM 1.4 °F -6.2 °F -2.2 °F 85% 30.28 in 10.0 mi WSW 3.5 mph - N/A   Clear
1:54 AM -0.4 °F - -2.2 °F 92% 30.29 in 10.0 mi Calm Calm - N/A   Clear
2:14 AM -0.4 °F - -4.0 °F 85% 30.29 in 10.0 mi Calm Calm - N/A   Clear
2:34 AM -0.4 °F - -4.0 °F 85% 30.30 in 10.0 mi Calm Calm - N/A   Clear
2:54 AM -2.2 °F - -5.8 °F 85% 30.30 in 10.0 mi Calm Calm - N/A   Clear
3:14 AM -0.4 °F - -4.0 °F 85% 30.29 in 10.0 mi Calm Calm - N/A   Clear
3:34 AM -2.2 °F - -5.8 °F 85% 30.29 in 10.0 mi Calm Calm - N/A   Clear
3:54 AM -2.2 °F - -5.8 °F 85% 30.28 in 10.0 mi Calm Calm - N/A   Clear
4:14 AM -2.2 °F - -4.0 °F 92% 30.28 in 10.0 mi Calm Calm - N/A   Clear
4:34 AM -2.2 °F -10.4 °F -5.8 °F 85% 30.29 in 10.0 mi SSW 3.5 mph - N/A   Clear
4:54 AM -2.2 °F -10.4 °F -5.8 °F 85% 30.29 in 10.0 mi SSW 3.5 mph - N/A   Clear
5:14 AM -2.2 °F - -4.0 °F 92% 30.30 in 10.0 mi Calm Calm - N/A   Clear
5:34 AM -2.2 °F - -5.8 °F 85% 30.29 in 10.0 mi Calm Calm - N/A   Clear
5:54 AM -2.2 °F - -5.8 °F 85% 30.30 in 10.0 mi Calm Calm - N/A   Clear
6:14 AM -2.2 °F - -5.8 °F 85% 30.30 in 10.0 mi Calm Calm - N/A   Clear
6:34 AM -2.2 °F - -5.8 °F 85% 30.30 in 10.0 mi Calm Calm - N/A   Clear
6:54 AM -2.2 °F - -5.8 °F 85% 30.31 in 10.0 mi Calm Calm - N/A   Clear
7:14 AM -2.2 °F - -5.8 °F 85% 30.31 in 10.0 mi Calm Calm - N/A   Clear
7:33 AM -0.4 °F - -4.0 °F 85% 30.30 in 10.0 mi Calm Calm - N/A   Clear
7:54 AM -0.4 °F - -2.2 °F 92% 30.31 in 10.0 mi Calm Calm - N/A   Clear
8:14 AM -0.4 °F - -2.2 °F 92% 30.31 in 10.0 mi Calm Calm - N/A   Clear
8:34 AM 1.4 °F - -0.4 °F 92% 30.31 in 10.0 mi Calm Calm - N/A   Clear
8:54 AM 3.2 °F -4.2 °F -0.4 °F 85% 30.32 in 10.0 mi SSE 3.5 mph - N/A   Clear
9:14 AM 5.0 °F - 1.4 °F 85% 30.32 in 10.0 mi Calm Calm - N/A   Clear
9:34 AM 6.8 °F -3.5 °F 1.4 °F 79% 30.31 in 10.0 mi SE 5.8 mph - N/A   Clear
9:54 AM 8.6 °F 0.1 °F 3.2 °F 79% 30.31 in 10.0 mi SE 4.6 mph - N/A   Clear
10:13 AM 10.4 °F 0.8 °F 5.0 °F 79% 30.32 in 10.0 mi SSE 5.8 mph - N/A   Clear
10:54 AM 15.8 °F 5.1 °F 6.8 °F 68% 30.30 in 10.0 mi ESE 8.1 mph - N/A   Clear
11:14 AM 15.8 °F 3.4 °F 6.8 °F 68% 30.29 in 10.0 mi SE 10.4 mph - N/A   Clear
11:34 AM 17.6 °F 8.2 °F 6.8 °F 63% 30.29 in 10.0 mi SE 6.9 mph - N/A   Clear
11:54 AM 19.4 °F 9.5 °F 6.8 °F 58% 30.28 in 10.0 mi SSE 8.1 mph - N/A   Clear
12:14 PM 19.4 °F 5.0 °F 6.8 °F 58% 30.26 in 10.0 mi SE 16.1 mph - N/A   Clear
12:34 PM 21.2 °F 10.1 °F 6.8 °F 54% 30.26 in 10.0 mi SSE 10.4 mph - N/A   Scattered Clouds
12:54 PM 19.4 °F 7.2 °F 6.8 °F 58% 30.25 in 10.0 mi SSE 11.5 mph 18.4 mph N/A   Mostly Cloudy
1:14 PM 21.2 °F 9.5 °F 6.8 °F 54% 30.24 in 10.0 mi SSE 11.5 mph - N/A   Overcast
1:34 PM 21.2 °F 9.5 °F 8.6 °F 58% 30.23 in 10.0 mi SE 11.5 mph - N/A   Overcast
1:54 PM 23.0 °F 10.6 °F 8.6 °F 54% 30.20 in 10.0 mi SE 13.8 mph - N/A   Mostly Cloudy
2:14 PM 23.0 °F 10.6 °F 8.6 °F 54% 30.20 in 10.0 mi SE 13.8 mph - N/A   Mostly Cloudy
2:34 PM 24.8 °F 15.3 °F 8.6 °F 50% 30.20 in 10.0 mi SSE 9.2 mph 12.7 mph N/A   Overcast
2:54 PM 24.8 °F 13.4 °F 8.6 °F 50% 30.19 in 10.0 mi SE 12.7 mph 17.3 mph N/A   Mostly Cloudy
3:14 PM 24.8 °F 14.0 °F 8.6 °F 50% 30.18 in 10.0 mi SSE 11.5 mph - N/A   Scattered Clouds
3:34 PM 24.8 °F 12.4 °F 8.6 °F 50% 30.18 in 10.0 mi SE 15.0 mph 19.6 mph N/A   Scattered Clouds
3:54 PM 24.8 °F 12.4 °F 8.6 °F 50% 30.18 in 10.0 mi SE 15.0 mph - N/A   Mostly Cloudy
4:14 PM 24.8 °F 11.9 °F 10.4 °F 54% 30.16 in 10.0 mi SE 16.1 mph - N/A   Scattered Clouds
4:34 PM 23.0 °F 10.6 °F 10.4 °F 59% 30.15 in 10.0 mi SE 13.8 mph 19.6 mph N/A   Mostly Cloudy
4:54 PM 24.8 °F 13.4 °F 10.4 °F 54% 30.15 in 10.0 mi SE 12.7 mph - N/A   Mostly Cloudy
5:14 PM 24.8 °F 14.0 °F 10.4 °F 54% 30.15 in 10.0 mi SE 11.5 mph 18.4 mph N/A   Overcast
5:34 PM 24.8 °F 13.4 °F 10.4 °F 54% 30.14 in 10.0 mi SE 12.7 mph 20.7 mph N/A   Overcast
5:54 PM 24.8 °F 14.0 °F 10.4 °F 54% 30.15 in 10.0 mi SE 11.5 mph 17.3 mph N/A   Overcast
6:14 PM 24.8 °F 14.0 °F 10.4 °F 54% 30.14 in 10.0 mi SE 11.5 mph - N/A   Overcast
6:34 PM 24.8 °F 16.1 °F 10.4 °F 54% 30.14 in 10.0 mi SE 8.1 mph 18.4 mph N/A   Overcast
6:54 PM 24.8 °F 14.0 °F 10.4 °F 54% 30.14 in 10.0 mi SE 11.5 mph 17.3 mph N/A   Overcast
7:14 PM 24.8 °F 16.1 °F 10.4 °F 54% 30.14 in 10.0 mi SE 8.1 mph 16.1 mph N/A   Overcast
7:34 PM 24.8 °F 16.9 °F 10.4 °F 54% 30.14 in 10.0 mi SE 6.9 mph 18.4 mph N/A   Overcast
7:54 PM 24.8 °F 16.1 °F 12.2 °F 59% 30.15 in 10.0 mi SE 8.1 mph - N/A   Overcast
8:14 PM 24.8 °F 14.0 °F 12.2 °F 59% 30.14 in 10.0 mi SSE 11.5 mph - N/A   Overcast
8:34 PM 24.8 °F 14.0 °F 12.2 °F 59% 30.13 in 10.0 mi SSE 11.5 mph - N/A   Mostly Cloudy
8:54 PM 26.6 °F 14.7 °F 12.2 °F 55% 30.12 in 10.0 mi SSE 15.0 mph - N/A   Overcast
9:14 PM 24.8 °F 12.4 °F 12.2 °F 59% 30.11 in 10.0 mi SSE 15.0 mph - N/A   Overcast
9:34 PM 24.8 °F 14.0 °F 12.2 °F 59% 30.11 in 10.0 mi SSE 11.5 mph 17.3 mph N/A   Mostly Cloudy
9:53 PM 24.8 °F 14.0 °F 12.2 °F 59% 30.11 in 10.0 mi SSE 11.5 mph - N/A   Mostly Cloudy
10:14 PM 24.8 °F 14.0 °F 12.2 °F 59% 30.11 in 10.0 mi SSE 11.5 mph - N/A   Mostly Cloudy
10:34 PM 24.8 °F 14.6 °F 12.2 °F 59% 30.11 in 10.0 mi SSE 10.4 mph - N/A   Mostly Cloudy
10:53 PM 24.8 °F 14.6 °F 12.2 °F 59% 30.11 in 10.0 mi SSE 10.4 mph - N/A   Mostly Cloudy
11:14 PM 24.8 °F 14.0 °F 12.2 °F 59% 30.11 in 10.0 mi SSE 11.5 mph - N/A   Scattered Clouds
11:34 PM 24.8 °F 13.4 °F 12.2 °F 59% 30.11 in 10.0 mi SSE 12.7 mph - N/A   Mostly Cloudy
11:54 PM 26.6 °F 15.2 °F 12.2 °F 55% 30.10 in 10.0 mi SSE 13.8 mph - N/A   Overcast